Regional Weather Roundup
Issued by NWS

Home | Current Version | Previous Version | Text Only | Print | Product List | Glossary Off
Versions: 1 2 3 4 5 6 7 8 9 10 11 12 13 14 15 16 17 18 19 20 21 22 23 24 25 26 27

000
ASUS45 KCYS 201610
RWRWY

WYOMING REGIONAL WEATHER ROUNDUP
NATIONAL WEATHER SERVICE CHEYENNE WY
1000 AM MDT SUN AUG 20 2017

NOTE:  "FAIR" INDICATES FEW OR NO CLOUDS BELOW 12,000 FEET
WITH NO SIGNIFICANT WEATHER AND/OR OBSTRUCTIONS TO VISIBILITY.

WYZ001-201700-
YELLOWSTONE NATIONAL PARK

CITY           SKY/WX    TMP DP  RH WIND       PRES   REMARKS
LK YELLOWSTONE   N/A     56  43  61 CALM      30.29S
W YELLOWSTONE  NOT AVBL

$$
WYZ002>013-054>058-071-098>099-201700-
NORTHERN WYOMING

CITY           SKY/WX    TMP DP  RH WIND       PRES   REMARKS
JACKSON        FAIR      59  33  37 CALM      30.21S
CODY           FAIR      62  42  47 NE5       30.13F
GREYBULL       FAIR      66  39  37 CALM      30.06S
WORLAND        FAIR      68  40  35 NE5       30.08R
SHERIDAN       FAIR      68  44  42 CALM      30.06F
BUFFALO        FAIR      68  40  35 SE8       30.11F
GILLETTE       FAIR      71  43  36 SE7       30.09F
HULETT         FAIR      70  45  40 E14G21    30.12F
NEWCASTLE      FAIR      70  37  30 SE7       30.13S

$$
WYZ014>020-022>026-101>103-201700-
CENTRAL WYOMING

CITY           SKY/WX    TMP DP  RH WIND       PRES   REMARKS
BIG PINEY      FAIR      65  31  28 E5        30.25S
PINEDALE       FAIR      64  34  32 CALM      30.26S
DUBOIS         FAIR      61  30  31 CALM      30.22F
LANDER           N/A    N/A N/A N/A MISG      30.12F
RIVERTON       FAIR      67  36  31 SW3       30.12S
CASPER         FAIR      67  39  35 SE6       30.14S
DOUGLAS        FAIR      68  45  43 SE16      30.16S

$$
WYZ021-027>030-104>119-201700-
SOUTHERN WYOMING

CITY           SKY/WX    TMP DP  RH WIND       PRES   REMARKS
EVANSTON         N/A     71  38  29 SW10      30.25S
FORT BRIDGER   FAIR      76  34  21 W10       30.26S
ROCK SPRINGS   FAIR      72  38  29 S3        30.23S
RAWLINS        FAIR      71  32  23 E5        30.24R
SARATOGA       FAIR      72  32  23 SE8       30.26S
LARAMIE        FAIR      70  33  25 CALM      30.26S
CHEYENNE       FAIR      67  40  37 N16       30.20R
TORRINGTON     FAIR      72  49  44 E13       30.11R
PINE BLUFFS    FAIR      63  43  48 N8        30.16R

$$




USA.gov is the U.S. government's official web portal to all federal, state and local government web resources and services.